Location: Newark
(40.9833°N, 0.0333°W)
Time: 07:55:20
(UTC+00:00)

Vanguard 2 Rocket - Pass Details

Date: 04 November 2020
Orbit: 554 x 3326 km, 32.9° (Epoch: 25 November)

Event Time Altitude Azimuth Distance (km) Brightness Sun altitude
Rises 20:22:34 0° 257° (WSW) 2,736 10.1 -39.9°
Enters shadow 20:23:42 - 249° (WSW) 2,372 9.6 -40.1°
Reaches altitude 10° 20:25:26 10° 232° (SW) 1,943 - -40.5°
Maximum altitude 20:27:57 15° 195° (SSW) 1,781 - -40.9°
Drops below altitude 10° 20:30:53 10° 160° (SSE) 2,347 - -41.4°
Sets 20:34:59 0° 139° (SE) 3,715 - -42.2°
